Location: Unspecified
(0.0000°N, 0.0000°E)
Time: 07:35:28
(UTC+00:00)

LES 2 - Pass Details

Date: 11 October 2025
Orbit: 2783 x 14792 km, 32.1° (Epoch: 30 October)

Event Time Altitude Azimuth Distance (km) Brightness Sun altitude
Enters shadow 00:04:53 - 281° (W) 7,011 ? -81.6°
Exits shadow 00:30:36 27° 158° (SSE) 5,321 ? -77.0°
Drops below altitude 10° 00:41:06 10° 137° (SE) 8,070 ? -74.7°
Sets 00:50:42 0° 128° (SE) 10,587 ? -72.6°
